EHI
13 11 10 11 13 14 14 13 10 7 5 4 3 1 0 0 0 0 0 0 0 0 0 0 0 0 0 0 0 0 0 0 0 0 0 0 0 0 0 0 0 0 0
12 11 9 9 12 13 13 12 10 7 6 4 3 2 1 0 0 0 0 0 0 0 0 0 0 0 0 0 0 0 0 0 0 0 0 0 0 0 0 0 0 0 0
12 11 8 8 12 13 12 11 9 8 7 5 3 2 1 0 0 0 0 0 0 0 0 0 0 0 0 0 0 0 0 0 0 0 0 0 0 0 0 0 0 0 0
11 10 9 10 13 14 12 9 8 7 6 5 4 3 1 0 1 0 0 0 0 0 0 0 0 0 0 0 0 0 0 0 0 0 0 0 0 0 0 0 0 0 0
7 7 8 11 12 12 12 9 7 6 5 5 5 4 2 1 1 0 0 0 0 0 0 0 0 0 0 0 0 0 0 0 0 0 0 0 0 0 0 0 0 0 0
4 4 7 8 8 8 9 7 5 4 5 6 6 5 4 2 1 0 0 1 1 1 0 0 0 0 0 0 0 0 0 0 0 0 0 0 0 0 0 0 0 0 0
3 4 5 5 5 5 5 4 3 3 4 5 5 5 5 4 2 1 1 2 2 2 1 0 0 0 0 0 0 0 0 0 0 0 0 0 0 0 0 0 0 0 0
4 4 4 3 3 3 2 1 1 1 2 3 3 3 3 3 2 1 1 2 3 2 1 1 1 0 0 0 0 0 0 0 0 0 0 0 0 0 0 0 0 0 0
3 3 3 2 1 1 1 0 0 0 1 1 1 1 1 1 2 1 1 1 1 1 1 1 2 1 0 0 0 0 0 0 0 0 0 0 0 0 0 0 0 0 0
3 3 3 1 0 0 0 0 0 0 0 0 0 0 0 0 0 0 0 0 0 0 0 1 2 2 1 0 0 0 0 0 0 0 0 0 0 0 0 0 0 0 0
1 2 2 1 0 0 0 0 0 0 0 0 0 0 0 0 0 0 0 0 0 0 0 0 1 1 1 0 0 0 0 0 0 0 0 0 0 0 0 0 0 0 0
0 1 1 0 0 0 0 0 0 0 0 0 0 0 0 0 0 0 0 0 0 0 0 0 0 0 0 0 0 0 0 0 0 0 0 0 0 0 0 0 0 0 0
0 0 0 0 0 0 0 0 0 0 1 0 0 0 0 0 0 0 1 1 0 0 0 0 0 0 0 0 0 0 0 0 0 0 0 0 0 0 0 0 0 0 0
0 0 0 0 0 0 0 0 0 0 0 0 0 0 0 0 0 0 1 2 1 1 0 0 0 0 0 0 0 0 0 0 0 0 0 0 0 0 0 0 0 0 0
0 0 0 0 0 0 0 0 0 0 0 0 0 0 0 0 0 0 1 2 3 2 1 0 0 0 0 0 0 0 0 0 0 0 0 0 0 0 0 0 0 0 0
0 0 0 0 0 0 0 0 0 0 0 0 0 0 0 0 0 0 1 2 2 2 1 0 0 0 0 0 0 0 0 0 0 0 0 0 0 0 0 0 0 0 0
0 0 0 0 0 0 0 0 0 0 0 0 0 0 0 0 0 0 0 1 1 1 0 0 0 0 0 0 0 0 0 0 0 0 0 0 0 0 0 0 0 0 0
0 0 0 0 0 0 0 0 0 0 0 1 0 0 0 0 0 0 0 0 0 0 0 0 0 0 0 0 0 0 0 0 0 0 0 0 0 0 0 0 0 0 0
0 0 0 0 0 0 0 0 0 0 0 0 0 0 0 0 0 0 0 0 0 0 0 0 0 0 0 0 0 0 0 0 0 0 0 0 0 0 0 0 0 0 0
0 0 0 0 0 0 0 0 0 0 0 0 0 0 0 0 0 0 0 0 0 0 0 0 0 0 0 0 0 0 0 0 0 0 0 0 0 0 0 0 0 0 0
0 0 0 0 0 0 0 0 0 0 0 0 0 0 0 0 0 0 0 0 0 0 0 0 0 0 0 0 0 0 0 0 0 0 0 0 0 0 0 0 0 0 0
0 0 0 0 0 0 0 0 0 0 0 0 0 0 0 0 0 0 0 0 0 0 0 0 0 0 0 0 0 0 0 0 0 0 0 0 0 0 0 0 0 0 0
0 0 0 0 0 0 0 0 0 0 0 0 0 0 0 0 1 1 1 0 0 0 0 0 0 0 0 0 0 0 0 0 0 0 0 0 0 0 0 0 0 0 0
0 0 0 0 0 0 0 0 0 0 0 0 0 0 0 0 1 1 1 0 0 0 0 0 0 0 0 0 0 0 0 0 0 0 0 0 0 0 0 0 0 0 0
0 0 0 0 0 0 0 0 0 0 0 0 0 0 0 0 0 0 0 0 0 0 0 0 0 0 0 0 0 0 0 0 0 0 0 0 0 0 0 0 0 0 0
0 0 0 0 0 0 0 0 0 0 0 0 0 0 0 0 0 0 0 0 0 0 0 0 0 0 0 0 0 0 0 0 0 0 0 0 0 0 0 0 0 0 0
Wind_Speed
4 5 6 5 5 5 6 7 8 9 10 9 10 9 9 9 9 9 9 9 9 9 10 10 10 10 10 11 11 11 12 13 13 13 12 11 11 11 11 11 12 9 14
4 6 6 5 5 5 5 5 6 8 9 9 9 10 10 9 9 9 9 9 9 9 10 10 10 10 10 11 11 11 11 11 12 11 10 9 9 11 12 13 12 8 13
5 6 5 5 4 4 4 5 4 6 8 9 9 9 10 10 10 10 9 9 9 9 9 10 10 10 11 10 10 10 10 10 10 9 8 6 7 11 12 12 12 12 12
6 6 5 4 3 3 4 4 4 5 7 8 9 9 10 10 10 10 10 9 9 8 8 9 10 10 10 10 10 9 9 7 6 4 3 5 6 10 11 11 11 11 11
5 5 6 5 3 2 3 3 4 4 5 7 8 9 9 10 10 11 10 10 9 8 8 9 10 10 10 9 9 8 7 5 3 3 3 6 5 9 10 10 9 10 10
4 4 5 5 3 1 1 2 3 4 4 5 7 7 8 10 11 11 10 9 9 9 9 10 10 10 10 9 8 7 6 4 3 2 4 6 5 8 9 8 8 8 8
4 3 3 4 2 1 0 2 3 4 4 5 6 7 8 9 10 10 10 10 10 10 10 10 10 10 10 9 8 7 5 4 4 1 4 6 6 9 8 8 7 7 7
3 2 2 2 1 1 2 2 3 4 4 4 5 7 8 7 8 9 10 11 11 11 11 11 11 10 10 9 8 6 4 4 4 1 4 5 8 9 8 7 6 6 6
3 2 1 1 1 1 2 3 3 4 4 5 5 6 7 7 7 9 10 11 11 11 11 11 11 10 10 9 8 6 4 5 4 1 5 5 8 9 8 7 6 6 5
3 2 2 1 1 2 2 4 4 5 6 6 6 6 6 7 7 8 9 11 11 11 11 11 11 10 9 9 8 7 5 5 4 2 3 6 9 9 8 7 6 5 5
4 3 2 2 2 2 3 4 5 6 7 7 5 6 6 5 5 6 9 10 11 11 11 11 11 10 9 8 8 8 5 3 4 2 3 9 11 9 8 7 6 5 5
4 4 3 3 3 3 3 2 3 3 4 5 4 5 5 5 5 7 9 11 12 11 11 12 11 10 7 4 6 7 3 5 4 2 4 11 11 9 8 7 7 6 6
5 5 4 4 3 3 2 2 2 2 2 4 5 5 5 4 4 4 4 5 7 9 7 8 8 6 6 5 5 5 5 4 3 2 5 11 11 10 9 8 8 7 7
5 5 5 4 4 3 3 3 2 2 2 3 4 5 4 3 3 4 4 5 5 5 5 5 5 6 6 6 6 6 6 4 2 2 5 11 10 11 10 10 9 9 9
5 5 5 5 5 4 3 3 3 3 3 3 3 4 4 3 4 4 4 4 5 4 5 5 6 6 6 6 6 6 6 5 4 3 4 10 10 10 11 11 10 10 10
5 5 5 5 5 4 3 3 3 3 3 3 3 4 4 3 3 4 4 5 5 4 5 6 6 6 5 5 5 5 5 5 4 4 4 7 10 11 11 11 11 11 10
6 6 5 5 4 3 4 4 3 3 3 3 3 4 4 4 4 4 4 4 4 5 5 5 6 5 4 5 5 6 5 5 4 5 5 5 6 9 10 11 11 10 10
5 5 5 6 4 3 3 4 3 3 3 3 3 3 4 5 5 4 4 4 4 4 4 4 4 4 4 4 4 4 4 4 5 5 5 5 5 5 8 11 10 10 10
5 5 5 5 4 4 3 4 3 3 3 3 3 3 4 5 5 4 4 4 4 4 4 4 4 4 4 4 4 4 4 4 4 4 5 5 5 5 5 8 9 9 9
4 4 5 5 4 3 2 2 2 3 2 2 2 3 3 4 5 5 4 4 4 4 4 4 4 4 4 4 4 4 3 4 4 4 5 4 4 5 5 5 5 7 9
5 5 4 4 4 3 2 2 2 3 2 2 3 3 4 4 4 4 4 4 4 4 5 5 4 4 4 3 3 2 3 4 4 4 4 4 4 4 4 5 4 4 4
6 5 5 4 5 4 3 2 2 2 2 3 3 3 4 4 4 4 4 4 4 4 4 5 4 4 3 4 4 3 2 2 4 5 4 4 5 4 4 5 5 5 4
6 6 5 5 5 4 3 2 2 2 2 2 2 2 3 3 3 3 4 4 4 4 4 5 6 5 4 4 4 4 4 4 1 2 4 4 4 3 4 4 5 5 5
7 5 5 5 5 4 4 2 2 3 3 3 2 2 2 3 3 4 4 4 4 4 4 5 4 4 5 4 3 3 2 2 3 2 2 3 4 4 4 4 4 5 6
7 5 5 5 5 4 3 2 2 3 2 1 1 2 2 2 3 3 3 3 3 3 4 4 4 4 4 4 4 3 3 2 3 3 3 3 3 3 4 5 4 4 5
7 6 5 4 4 3 2 2 2 2 2 2 2 2 2 1 1 2 2 2 2 3 3 4 4 4 4 4 3 3 3 3 3 3 4 4 4 4 4 4 4 4 3
Wind_Direction
66 98 100 95 97 109 135 152 157 155 155 154 157 157 153 148 143 136 133 132 132 133 132 128 123 118 111 105 100 97 94 92 92 91 87 84 84 84 82 84 82 78 82
78 99 107 96 100 107 117 139 156 159 161 164 163 165 164 160 155 149 147 145 143 141 139 136 132 127 119 113 109 106 104 104 104 103 96 86 84 84 79 77 84 87 86
69 89 103 97 99 108 117 119 136 157 165 170 170 171 173 170 166 162 160 157 151 148 145 140 134 128 124 120 117 115 116 120 124 128 121 110 96 90 87 87 90 90 88
65 84 80 86 97 110 121 130 135 150 166 174 178 177 179 178 175 171 168 164 157 154 149 142 135 132 129 127 125 125 129 136 148 168 156 119 106 102 97 96 95 91 90
57 79 81 74 77 108 129 136 149 152 164 173 180 183 184 185 183 178 174 168 162 159 154 147 141 139 136 134 133 136 143 161 199 226 112 102 100 109 103 99 96 94 93
46 63 87 78 64 75 126 149 159 165 174 178 179 182 189 191 190 183 175 168 163 160 158 152 149 147 143 142 143 149 159 196 255 250 121 111 111 116 112 107 103 101 98
28 48 94 86 74 57 173 185 179 181 185 189 188 189 190 194 195 186 177 170 165 164 161 157 154 152 150 151 154 161 179 230 257 261 103 108 123 128 124 120 115 110 104
11 31 88 110 107 177 217 210 205 202 198 199 203 201 196 194 195 188 181 174 171 171 168 164 161 160 159 160 163 170 195 252 266 187 109 114 136 139 136 132 129 124 118
352 359 340 201 192 205 220 225 215 215 211 211 213 208 199 195 191 189 184 179 177 177 173 170 168 168 169 169 171 177 207 250 284 252 131 127 145 149 147 147 145 142 137
333 329 314 292 262 241 232 232 224 220 218 218 217 210 201 197 194 190 187 183 181 178 176 174 173 173 173 174 177 184 211 255 263 238 138 144 155 159 160 161 162 162 159
324 319 307 291 273 261 243 237 226 221 216 213 209 206 199 198 197 192 193 186 184 181 180 178 179 178 175 179 183 190 205 239 244 208 140 152 162 170 173 176 181 185 184
313 309 306 296 279 275 264 250 230 226 213 206 201 198 199 203 200 196 189 186 185 182 183 184 183 180 177 179 187 190 211 232 237 191 148 158 170 180 185 189 195 203 204
304 305 306 302 284 267 261 247 232 225 219 216 211 203 202 202 191 187 171 178 184 182 184 186 184 189 192 186 182 194 215 224 221 176 160 166 177 189 197 201 207 213 216
294 295 296 292 283 264 255 248 236 226 218 215 215 209 201 197 189 182 178 174 180 186 185 183 190 197 201 196 190 196 209 217 211 168 168 174 182 195 205 210 214 219 223
290 289 293 287 275 269 255 245 240 231 226 225 217 210 205 194 192 188 184 181 183 185 184 185 194 197 202 204 203 200 205 214 203 184 168 183 188 198 208 216 220 224 227
290 290 285 279 272 266 261 249 240 229 230 231 221 216 206 197 193 189 187 184 187 186 188 189 195 197 200 200 209 206 205 209 207 191 174 190 196 199 208 217 222 225 228
294 292 287 277 268 266 269 263 255 235 225 228 225 219 213 198 194 194 192 187 190 187 192 193 197 195 198 199 208 211 207 207 205 198 186 184 194 203 207 216 222 224 228
297 295 292 290 285 266 264 269 262 247 237 228 225 218 214 207 195 194 197 193 192 187 188 196 192 192 198 197 205 212 208 207 211 204 193 189 187 192 205 212 217 222 228
312 307 300 286 277 266 257 255 259 257 251 241 229 221 214 209 197 189 196 196 191 189 186 198 197 187 196 202 208 211 208 207 212 210 204 199 192 186 188 204 209 218 229
317 313 309 304 291 278 258 247 248 254 249 246 234 230 223 215 205 193 194 196 192 192 189 188 199 193 193 199 211 218 221 217 210 210 208 202 196 195 190 194 201 217 224
331 325 314 305 295 288 267 256 248 251 249 247 235 229 227 218 210 199 198 199 194 196 194 188 192 196 201 191 183 214 245 234 220 209 206 202 203 201 195 198 199 204 215
330 325 323 317 306 294 279 264 251 249 244 238 238 232 226 217 209 205 199 199 201 197 195 193 187 195 200 187 173 169 213 244 237 224 212 205 206 199 203 207 205 207 210
335 332 325 319 314 308 298 284 274 270 262 243 240 235 228 217 212 205 207 207 205 197 198 199 194 192 199 203 184 174 179 207 226 233 220 216 207 203 211 214 212 214 215
333 329 327 319 314 308 300 284 261 251 251 254 251 242 238 224 218 211 216 217 212 202 200 204 200 196 189 198 206 208 204 170 171 220 240 223 216 217 220 224 224 221 218
332 330 323 318 317 310 298 284 273 267 268 281 283 259 247 237 229 212 210 212 216 205 199 196 203 204 197 196 199 200 217 225 203 191 222 223 235 227 228 230 229 222 217
336 331 326 324 322 323 322 321 299 282 284 287 280 264 254 243 239 236 215 204 216 210 198 196 196 200 206 208 208 205 199 197 206 211 221 223 232 231 232 230 226 225 225